Flugplatz Segelfluggelände Isny-Rotmoos (UL)

Hier findest Du alle Informationen zum Flugplatz Segelfluggelände Isny-Rotmoos (UL).

Informationen für Piloten zum Flugplatz Segelfluggelände Isny-Rotmoos

Hier findest Du alle relevanten Informationen, die Du als Pilot benötigst, um Segelfluggelände Isny-Rotmoos anzufliegen.

Flugplatz: Segelfluggelände Isny-Rotmoos ICAO-Code: UL Flugplatz
Frequenz Turm: 123.500 Mhz GAFOR Gebiet: -
Frequenz Ground: 123.500 Mhz Mogas: nein
Platzrunde: N 0 ft Landegebühr: -
Platzhöhe: - Sunrise: 04:26 Uhr UTC
Pisten: 07/25 - 455 m x 30 m, GRAS Sunset: 18:12 Uhr UTC

Flugwetter am Flugplatz Segelfluggelände Isny-Rotmoos

Die METAR Information stammen aus EDNY (38.14 km entfernt).

METAR Code:
2024/04/14 07:20
EDNY 140720Z 20003KT 160V230 CAVOK 16/08 Q1025

Flugschulen am Flugplatz Segelfluggelände Isny-Rotmoos

Am Flugplatz Segelfluggelände Isny-Rotmoos gibt es leider keine Flugschule.

Benachbarte Flugplätze und Flugschulen

Es gibt 14 weitere Flugplätze in einem Umkreis von 50 km um den Flugplatz Segelfluggelände Isny-Rotmoos.

Jetzt anmelden

Passwort vergessen

Umfrage Archiv

Wie häufig haltet Ihr die Halbkreisflugregel ein?

Eher häufig!
34.5 %
Immer!
32.4 %
Hin und wieder!
16.4 %
Nie!
9.2 %
Eher selten!
7.6 %
Stimmen: 238 | Diskussion
Anzeige: Roland Aircraft
Statistik Alle Mitglieder

Aktuell sind 39 Besucher online, davon 1 Mitglied und 38 Gäste.


Mitglieder online:
b3nn0 

Anzeige: EasyVFR